Location: Asheville, NC
(35.6000°N, 82.5500°W)
Time: 18:50:21
(UTC-04:00)

Vanguard 2 - Pass Details

Date: 09 December 2017
Orbit: 553 x 2939 km, 32.9° (Epoch: 23 April)

Event Time Altitude Azimuth Distance (km) Brightness Sun altitude
Rises 21:19:33 0° 272° (W) 2,716 - -48.5°
Reaches altitude 10° 21:21:48 10° 262° (W) 1,826 - -48.9°
Maximum altitude 21:25:27 35° 195° (SSW) 976 - -49.6°
Drops below altitude 10° 21:29:53 10° 129° (SE) 2,231 - -50.5°
Sets 21:32:55 0° 121° (ESE) 3,434 - -51.2°
